Time,TemperatureF,DewpointF,PressureIn,WindDirection,WindDirectionDegrees,WindSpeedMPH,WindSpeedGustMPH,Humidity,HourlyPrecipIn,Conditions,Clouds,dailyrainin,SoftwareType,DateUTC
2013-05-23 00:08:00,73.8,72.9,29.80,SE,135,0.0,-999.0,97,-99.99,,,0.00,Acu-Link.com,2013-05-23 04:08:00,
2013-05-23 00:23:00,73.9,73.0,29.79,ESE,112,2.7,-999.0,97,-99.99,,,0.00,Acu-Link.com,2013-05-23 04:23:00,
2013-05-23 00:39:00,74.7,72.9,29.78,SSE,157,3.7,-999.0,94,-99.99,,,0.00,Acu-Link.com,2013-05-23 04:39:00,
2013-05-23 00:54:00,75.4,72.3,29.78,SSE,157,4.7,-999.0,90,-99.99,,,0.00,Acu-Link.com,2013-05-23 04:54:00,
2013-05-23 01:09:00,75.2,72.1,29.77,South,180,2.2,-999.0,90,-99.99,,,0.00,Acu-Link.com,2013-05-23 05:09:00,
2013-05-23 01:24:00,75.0,72.2,29.77,South,180,2.7,-999.0,91,-99.99,,,0.00,Acu-Link.com,2013-05-23 05:24:00,
2013-05-23 01:39:00,74.7,72.2,29.77,South,180,2.2,-999.0,92,-99.99,,,0.00,Acu-Link.com,2013-05-23 05:39:00,
2013-05-23 01:54:00,74.1,72.3,29.76,SE,135,2.7,-999.0,94,-99.99,,,0.00,Acu-Link.com,2013-05-23 05:54:00,
2013-05-23 02:09:00,74.1,72.6,29.76,SSE,157,2.2,-999.0,95,-99.99,,,0.00,Acu-Link.com,2013-05-23 06:09:00,
2013-05-23 02:24:00,74.1,72.9,29.76,SSE,157,2.2,-999.0,96,-99.99,,,0.00,Acu-Link.com,2013-05-23 06:24:00,
2013-05-23 02:39:00,74.1,72.9,29.76,South,180,2.7,-999.0,96,-99.99,,,0.00,Acu-Link.com,2013-05-23 06:39:00,
2013-05-23 02:55:00,74.5,73.3,29.76,SSW,202,2.7,-999.0,96,-99.99,,,0.00,Acu-Link.com,2013-05-23 06:55:00,
2013-05-23 03:10:00,74.7,73.2,29.76,SSW,202,4.7,-999.0,95,-99.99,,,0.00,Acu-Link.com,2013-05-23 07:10:00,
2013-05-23 03:25:00,74.5,73.0,29.76,SSW,202,2.2,-999.0,95,-99.99,,,0.00,Acu-Link.com,2013-05-23 07:25:00,
2013-05-23 03:40:00,74.5,73.0,29.76,SSW,202,3.2,-999.0,95,-99.99,,,0.00,Acu-Link.com,2013-05-23 07:40:00,
2013-05-23 04:12:00,74.1,72.9,29.77,SSW,202,2.2,-999.0,96,-99.99,,,0.00,Acu-Link.com,2013-05-23 08:12:00,
2013-05-23 04:27:00,73.9,72.7,29.76,SSW,202,4.7,-999.0,96,-99.99,,,0.00,Acu-Link.com,2013-05-23 08:27:00,
2013-05-23 04:43:00,73.8,72.9,29.76,SSW,202,3.7,-999.0,97,-99.99,,,0.00,Acu-Link.com,2013-05-23 08:43:00,
2013-05-23 04:58:00,73.8,72.9,29.76,SW,225,2.7,-999.0,97,-99.99,,,0.00,Acu-Link.com,2013-05-23 08:58:00,
2013-05-23 05:13:00,73.4,72.8,29.76,SSW,202,3.2,-999.0,98,-99.99,,,0.00,Acu-Link.com,2013-05-23 09:13:00,
2013-05-23 05:28:00,73.2,72.6,29.77,SSW,202,3.7,-999.0,98,-99.99,,,0.00,Acu-Link.com,2013-05-23 09:28:00,
2013-05-23 05:43:00,73.2,72.9,29.78,SW,225,3.7,-999.0,99,-99.99,,,0.00,Acu-Link.com,2013-05-23 09:43:00,
2013-05-23 05:59:00,73.2,72.9,29.78,SW,225,3.7,-999.0,99,-99.99,,,0.00,Acu-Link.com,2013-05-23 09:59:00,
2013-05-23 06:14:00,73.2,72.9,29.79,SW,225,3.7,-999.0,99,-99.99,,,0.00,Acu-Link.com,2013-05-23 10:14:00,
2013-05-23 06:29:00,73.2,72.9,29.79,WSW,247,3.7,-999.0,99,-99.99,,,0.00,Acu-Link.com,2013-05-23 10:29:00,
2013-05-23 06:44:00,73.2,72.9,29.80,SW,225,2.2,-999.0,99,-99.99,,,0.00,Acu-Link.com,2013-05-23 10:44:00,
2013-05-23 06:59:00,73.2,72.9,29.81,West,270,3.7,-999.0,99,-99.99,,,0.00,Acu-Link.com,2013-05-23 10:59:00,
2013-05-23 07:15:00,73.9,73.6,29.82,SW,225,5.3,-999.0,99,-99.99,,,0.00,Acu-Link.com,2013-05-23 11:15:00,
2013-05-23 07:30:00,74.3,74.0,29.83,West,270,3.2,-999.0,99,-99.99,,,0.00,Acu-Link.com,2013-05-23 11:30:00,
2013-05-23 07:45:00,75.2,74.9,29.84,WSW,247,4.2,-999.0,99,-99.99,,,0.00,Acu-Link.com,2013-05-23 11:45:00,
2013-05-23 08:02:00,75.9,74.4,29.83,West,270,6.8,-999.0,95,-99.99,,,0.00,Acu-Link.com,2013-05-23 12:02:00,
2013-05-23 08:17:00,77.2,74.7,29.84,WSW,247,6.3,-999.0,92,-99.99,,,0.00,Acu-Link.com,2013-05-23 12:17:00,
2013-05-23 08:32:00,78.6,74.7,29.84,WNW,292,4.2,-999.0,88,-99.99,,,0.00,Acu-Link.com,2013-05-23 12:32:00,
2013-05-23 08:47:00,78.4,73.9,29.84,West,270,5.3,-999.0,86,-99.99,,,0.00,Acu-Link.com,2013-05-23 12:47:00,
2013-05-23 09:12:00,80.4,74.7,29.84,West,270,4.7,-999.0,83,-99.99,,,0.00,Acu-Link.com,2013-05-23 13:12:00,
2013-05-23 09:27:00,81.1,74.3,29.85,West,270,5.8,-999.0,80,-99.99,,,0.00,Acu-Link.com,2013-05-23 13:27:00,
2013-05-23 09:42:00,81.0,74.2,29.84,West,270,4.7,-999.0,80,-99.99,,,0.00,Acu-Link.com,2013-05-23 13:42:00,
2013-05-23 09:57:00,82.4,73.7,29.84,SW,225,3.7,-999.0,75,-99.99,,,0.00,Acu-Link.com,2013-05-23 13:57:00,
2013-05-23 10:12:00,82.0,72.9,29.84,West,270,8.9,-999.0,74,-99.99,,,0.00,Acu-Link.com,2013-05-23 14:12:00,
2013-05-23 10:28:00,83.7,72.0,29.85,WSW,247,7.3,-999.0,68,-99.99,,,0.00,Acu-Link.com,2013-05-23 14:28:00,
2013-05-23 10:43:00,84.0,71.8,29.85,NW,315,5.3,-999.0,67,-99.99,,,0.00,Acu-Link.com,2013-05-23 14:43:00,
2013-05-23 10:58:00,85.3,72.2,29.85,SW,225,7.3,-999.0,65,-99.99,,,0.00,Acu-Link.com,2013-05-23 14:58:00,
2013-05-23 11:13:00,85.8,72.2,29.85,WNW,292,4.2,-999.0,64,-99.99,,,0.00,Acu-Link.com,2013-05-23 15:13:00,
2013-05-23 11:28:00,86.7,72.1,29.85,West,270,6.3,-999.0,62,-99.99,,,0.00,Acu-Link.com,2013-05-23 15:28:00,
2013-05-23 11:43:00,87.1,72.0,29.85,West,270,5.3,-999.0,61,-99.99,,,0.00,Acu-Link.com,2013-05-23 15:43:00,
2013-05-23 11:58:00,86.9,71.3,29.85,WSW,247,10.9,-999.0,60,-99.99,,,0.00,Acu-Link.com,2013-05-23 15:58:00,
2013-05-23 12:13:00,87.1,72.0,29.85,WSW,247,4.7,-999.0,61,-99.99,,,0.00,Acu-Link.com,2013-05-23 16:13:00,
2013-05-23 12:28:00,88.5,71.3,29.84,SW,225,6.8,-999.0,57,-99.99,,,0.00,Acu-Link.com,2013-05-23 16:28:00,
2013-05-23 12:44:00,89.6,71.8,29.85,West,270,6.8,-999.0,56,-99.99,,,0.00,Acu-Link.com,2013-05-23 16:44:00,
2013-05-23 12:59:00,89.1,70.3,29.84,SW,225,7.8,-999.0,54,-99.99,,,0.00,Acu-Link.com,2013-05-23 16:59:00,
2013-05-23 13:14:00,89.6,70.2,29.83,SSW,202,6.8,-999.0,53,-99.99,,,0.00,Acu-Link.com,2013-05-23 17:14:00,
2013-05-23 13:29:00,91.0,69.1,29.83,West,270,7.3,-999.0,49,-99.99,,,0.00,Acu-Link.com,2013-05-23 17:29:00,
2013-05-23 13:44:00,90.5,69.9,29.83,West,270,6.8,-999.0,51,-99.99,,,0.00,Acu-Link.com,2013-05-23 17:44:00,
2013-05-23 13:59:00,91.6,69.7,29.83,West,270,11.4,-999.0,49,-99.99,,,0.00,Acu-Link.com,2013-05-23 17:59:00,
2013-05-23 14:14:00,91.2,68.7,29.83,West,270,7.3,-999.0,48,-99.99,,,0.00,Acu-Link.com,2013-05-23 18:14:00,
2013-05-23 14:29:00,92.5,71.1,29.83,WSW,247,6.3,-999.0,50,-99.99,,,0.00,Acu-Link.com,2013-05-23 18:29:00,
2013-05-23 14:44:00,91.4,70.1,29.82,WSW,247,6.3,-999.0,50,-99.99,,,0.00,Acu-Link.com,2013-05-23 18:44:00,
2013-05-23 15:00:00,88.7,69.3,29.81,NW,315,2.7,-999.0,53,-99.99,,,0.00,Acu-Link.com,2013-05-23 19:00:00,
2013-05-23 15:16:00,90.9,70.2,29.81,West,270,7.8,-999.0,51,-99.99,,,0.00,Acu-Link.com,2013-05-23 19:16:00,
2013-05-23 15:31:00,90.9,70.8,29.81,SW,225,6.8,-999.0,52,-99.99,,,0.00,Acu-Link.com,2013-05-23 19:31:00,
2013-05-23 15:46:00,91.4,70.1,29.79,WSW,247,4.7,-999.0,50,-99.99,,,0.00,Acu-Link.com,2013-05-23 19:46:00,
2013-05-23 16:01:00,91.2,69.9,29.80,SSW,202,5.8,-999.0,50,-99.99,,,0.00,Acu-Link.com,2013-05-23 20:01:00,
2013-05-23 16:16:00,92.3,68.5,29.78,West,270,6.3,-999.0,46,-99.99,,,0.00,Acu-Link.com,2013-05-23 20:16:00,
2013-05-23 16:31:00,91.8,68.7,29.78,WNW,292,4.7,-999.0,47,-99.99,,,0.00,Acu-Link.com,2013-05-23 20:31:00,
2013-05-23 16:47:00,91.9,67.5,29.78,WSW,247,7.3,-999.0,45,-99.99,,,0.00,Acu-Link.com,2013-05-23 20:47:00,
2013-05-23 17:02:00,91.4,66.4,29.79,SW,225,4.7,-999.0,44,-99.99,,,0.00,Acu-Link.com,2013-05-23 21:02:00,
2013-05-23 17:17:00,93.6,67.0,29.78,WNW,292,6.8,-999.0,42,-99.99,,,0.00,Acu-Link.com,2013-05-23 21:17:00,
2013-05-23 17:32:00,93.9,65.9,29.79,West,270,5.3,-999.0,40,-99.99,,,0.00,Acu-Link.com,2013-05-23 21:32:00,
2013-05-23 17:48:00,90.1,73.3,29.79,ENE,67,11.4,-999.0,58,-99.99,,,0.00,Acu-Link.com,2013-05-23 21:48:00,
2013-05-23 18:04:00,87.1,73.9,29.79,ESE,112,10.4,-999.0,65,-99.99,,,0.00,Acu-Link.com,2013-05-23 22:04:00,
2013-05-23 18:19:00,86.4,74.6,29.80,ESE,112,7.3,-999.0,68,-99.99,,,0.00,Acu-Link.com,2013-05-23 22:19:00,
2013-05-23 18:34:00,86.2,74.8,29.80,ESE,112,5.8,-999.0,69,-99.99,,,0.00,Acu-Link.com,2013-05-23 22:34:00,